When you browse on this site, cookies collect data to enhance your experience and personalize the content and advertising you see.
Visit our Privacy Policy to learn more. By continuing to use the site, you agree to this use of cookies and data.
  • Em Portugal
  • Lista de países
  • Para 7 dias
  • Temperatura da água
  • Mapas de satélite
  • Mapa do tempo
  • Widgets de tempo
  • user-avatar
    Iniciar Sessão

    Previsão horária em Smecino

    Hoje, 16 Janeiro, Quarta-feira

    Tempo Temperatura Precipitação Vento Pressão Humidade
    00:00 +1°C° 0.1 mm 8 m/s 738 mmHg 87%
    01:00 +2°C° 0 mm 5 m/s 739 mmHg 86%
    02:00 +2°C° 0.1 mm 5 m/s 739 mmHg 88%
    03:00 +2°C° 0.1 mm 5 m/s 739 mmHg 89%
    04:00 +2°C° 0.1 mm 5 m/s 739 mmHg 91%
    05:00 +2°C° 0.2 mm 5 m/s 739 mmHg 92%
    06:00 +3°C° 0.2 mm 4 m/s 740 mmHg 94%
    07:00 +3°C° 0.2 mm 3 m/s 740 mmHg 95%
    08:00 +3°C° 0.4 mm 4 m/s 740 mmHg 93%
    09:00 +3°C° 0.4 mm 5 m/s 740 mmHg 90%
    10:00 +3°C° 0.4 mm 6 m/s 740 mmHg 88%
    11:00 +3°C° 0.1 mm 6 m/s 740 mmHg 87%
    12:00 +4°C° 0.1 mm 6 m/s 740 mmHg 86%
    13:00 +4°C° 0.1 mm 6 m/s 740 mmHg 85%
    14:00 +4°C° 0.1 mm 6 m/s 740 mmHg 85%
    15:00 +4°C° 0.1 mm 6 m/s 739 mmHg 86%
    16:00 +4°C° 0.1 mm 6 m/s 739 mmHg 87%
    17:00 +4°C° 0.1 mm 6 m/s 739 mmHg 87%
    18:00 +4°C° 0.1 mm 6 m/s 739 mmHg 87%
    19:00 +4°C° 0.1 mm 6 m/s 738 mmHg 87%
    20:00 +3°C° 0.2 mm 6 m/s 738 mmHg 87%
    21:00 +3°C° 0.2 mm 6 m/s 737 mmHg 86%
    22:00 +3°C° 0.2 mm 6 m/s 737 mmHg 86%
    23:00 +3°C° 0.1 mm 6 m/s 736 mmHg 85%

    Amanhã, 17 Janeiro, Quinta-feira

    Tempo Temperatura Precipitação Vento Pressão Humidade
    00:00 +2°C° 0.1 mm 6 m/s 736 mmHg 84%
    01:00 +2°C° 0.1 mm 7 m/s 735 mmHg 83%
    02:00 +2°C° 0.4 mm 7 m/s 735 mmHg 82%
    03:00 +2°C° 0.4 mm 7 m/s 734 mmHg 82%
    04:00 +2°C° 0.4 mm 7 m/s 733 mmHg 81%
    05:00 +2°C° 0.6 mm 7 m/s 733 mmHg 81%
    06:00 +1°C° 0.6 mm 8 m/s 733 mmHg 80%
    07:00 +1°C° 0.6 mm 8 m/s 733 mmHg 80%
    08:00 +1°C° 0.2 mm 8 m/s 733 mmHg 77%
    09:00 +1°C° 0.2 mm 8 m/s 733 mmHg 75%
    10:00 +2°C° 0.2 mm 8 m/s 733 mmHg 72%
    11:00 +2°C° 0 mm 8 m/s 733 mmHg 71%
    12:00 +2°C° 0 mm 8 m/s 733 mmHg 70%
    13:00 +2°C° 0 mm 8 m/s 734 mmHg 69%
    14:00 +1°C° 0.1 mm 8 m/s 733 mmHg 70%
    15:00 +1°C° 0.1 mm 8 m/s 733 mmHg 71%
    16:00 +2°C° 0.1 mm 7 m/s 733 mmHg 73%
    17:00 +2°C° 0.1 mm 7 m/s 733 mmHg 73%
    18:00 +2°C° 0.1 mm 7 m/s 733 mmHg 73%
    19:00 +2°C° 0.1 mm 7 m/s 733 mmHg 74%
    20:00 0°C° 0.1 mm 7 m/s 734 mmHg 73%
    21:00 -1°C° 0.1 mm 8 m/s 734 mmHg 72%
    22:00 -2°C° 0.1 mm 8 m/s 734 mmHg 71%
    23:00 -2°C° 0.5 mm 8 m/s 735 mmHg 71%

    Depois de amanhã, 18 Janeiro, Sexta-feira

    Tempo Temperatura Precipitação Vento Pressão Humidade
    00:00 -2°C° 0.5 mm 8 m/s 735 mmHg 71%
    01:00 -2°C° 0.5 mm 8 m/s 735 mmHg 71%
    02:00 -2°C° 0.2 mm 7 m/s 736 mmHg 76%
    03:00 -3°C° 0.2 mm 6 m/s 737 mmHg 80%
    04:00 -2°C° 0.2 mm 5 m/s 737 mmHg 84%
    05:00 -2°C° 0.5 mm 5 m/s 739 mmHg 85%
    06:00 -2°C° 0.5 mm 5 m/s 740 mmHg 85%
    07:00 -4°C° 0.5 mm 5 m/s 742 mmHg 85%
    08:00 -4°C° 0 mm 5 m/s 743 mmHg 81%
    09:00 -4°C° 0 mm 5 m/s 744 mmHg 76%
    10:00 -4°C° 0 mm 5 m/s 746 mmHg 71%
    11:00 -4°C° 0 mm 5 m/s 746 mmHg 69%
    12:00 -2°C° 0 mm 5 m/s 747 mmHg 67%
    13:00 -2°C° 0 mm 5 m/s 748 mmHg 65%
    14:00 -2°C° 0 mm 4 m/s 748 mmHg 68%
    15:00 -2°C° 0 mm 3 m/s 749 mmHg 71%
    16:00 -2°C° 0 mm 3 m/s 749 mmHg 75%
    17:00 -2°C° 0 mm 3 m/s 749 mmHg 79%
    18:00 -2°C° 0 mm 3 m/s 750 mmHg 83%
    19:00 -4°C° 0 mm 3 m/s 750 mmHg 87%
    20:00 -4°C° 0 mm 3 m/s 750 mmHg 87%
    21:00 -4°C° 0 mm 3 m/s 750 mmHg 87%
    22:00 -4°C° 0 mm 4 m/s 750 mmHg 86%
    23:00 -4°C° 0 mm 4 m/s 750 mmHg 85%

    19 Janeiro, Sábado

    Tempo Temperatura Precipitação Vento Pressão Humidade
    00:00 -3°C° 0 mm 4 m/s 750 mmHg 84%
    01:00 -3°C° 0 mm 4 m/s 750 mmHg 83%
    02:00 -3°C° 0 mm 4 m/s 750 mmHg 85%
    03:00 -3°C° 0 mm 4 m/s 750 mmHg 87%
    04:00 -2°C° 0 mm 3 m/s 750 mmHg 89%
    05:00 -2°C° 0 mm 3 m/s 750 mmHg 91%
    06:00 -2°C° 0 mm 3 m/s 751 mmHg 93%
    07:00 -2°C° 0 mm 3 m/s 751 mmHg 94%
    08:00 -2°C° 0 mm 3 m/s 751 mmHg 93%
    09:00 -2°C° 0 mm 3 m/s 751 mmHg 92%
    10:00 -1°C° 0 mm 3 m/s 752 mmHg 91%
    11:00 -1°C° 0 mm 3 m/s 752 mmHg 88%
    12:00 0°C° 0 mm 3 m/s 752 mmHg 86%
    13:00 +1°C° 0 mm 2 m/s 752 mmHg 84%
    14:00 +1°C° 0 mm 2 m/s 751 mmHg 85%
    15:00 -1°C° 0 mm 2 m/s 751 mmHg 87%
    16:00 -1°C° 0 mm 2 m/s 751 mmHg 89%
    17:00 -2°C° 0 mm 2 m/s 751 mmHg 89%
    18:00 -2°C° 0 mm 2 m/s 751 mmHg 90%
    19:00 -2°C° 0 mm 2 m/s 751 mmHg 91%
    20:00 -2°C° 0 mm 2 m/s 752 mmHg 90%
    21:00 -2°C° 0 mm 2 m/s 752 mmHg 90%
    22:00 -2°C° 0 mm 2 m/s 752 mmHg 89%
    23:00 -2°C° 0 mm 2 m/s 752 mmHg 89%

    20 Janeiro, Domingo

    Tempo Temperatura Precipitação Vento Pressão Humidade
    00:00 -2°C° 0 mm 2 m/s 752 mmHg 89%
    01:00 -2°C° 0 mm 2 m/s 752 mmHg 89%
    02:00 -2°C° 0 mm 2 m/s 752 mmHg 89%
    03:00 -2°C° 0 mm 2 m/s 752 mmHg 89%
    04:00 -2°C° 0 mm 2 m/s 752 mmHg 89%
    05:00 -2°C° 0 mm 2 m/s 752 mmHg 89%
    06:00 -2°C° 0 mm 2 m/s 752 mmHg 89%
    07:00 -2°C° 0 mm 2 m/s 752 mmHg 89%
    08:00 -1°C° 0 mm 3 m/s 752 mmHg 88%
    09:00 -1°C° 0 mm 3 m/s 752 mmHg 87%
    10:00 -1°C° 0 mm 3 m/s 753 mmHg 85%
    11:00 0°C° 0 mm 3 m/s 753 mmHg 81%
    12:00 0°C° 0 mm 3 m/s 753 mmHg 76%
    13:00 -1°C° 0 mm 4 m/s 753 mmHg 71%
    14:00 0°C° 0 mm 3 m/s 753 mmHg 73%
    15:00 -1°C° 0 mm 3 m/s 753 mmHg 75%
    16:00 -2°C° 0 mm 2 m/s 754 mmHg 77%
    17:00 -3°C° 0 mm 2 m/s 754 mmHg 77%
    18:00 -3°C° 0 mm 2 m/s 755 mmHg 76%
    19:00 -4°C° 0 mm 2 m/s 755 mmHg 76%
    20:00 -4°C° 0 mm 2 m/s 756 mmHg 75%
    21:00 -2°C° 0 mm 1 m/s 756 mmHg 74%
    22:00 -2°C° 0 mm 1 m/s 757 mmHg 73%
    23:00 -2°C° 0 mm 1 m/s 757 mmHg 73%

    21 Janeiro, Segunda-feira

    Tempo Temperatura Precipitação Vento Pressão Humidade
    00:00 -2°C° 0 mm 1 m/s 758 mmHg 73%
    01:00 -2°C° 0 mm 1 m/s 758 mmHg 73%
    02:00 -2°C° 0 mm 1 m/s 758 mmHg 73%
    03:00 -2°C° 0 mm 1 m/s 758 mmHg 72%
    04:00 -2°C° 0 mm 1 m/s 759 mmHg 72%
    05:00 -2°C° 0 mm 1 m/s 759 mmHg 72%
    06:00 -2°C° 0 mm 1 m/s 759 mmHg 73%
    07:00 -2°C° 0 mm 1 m/s 759 mmHg 73%
    08:00 -2°C° 0 mm 1 m/s 760 mmHg 71%
    09:00 -1°C° 0 mm 1 m/s 760 mmHg 69%
    10:00 -1°C° 0 mm 1 m/s 760 mmHg 67%
    11:00 -2°C° 0 mm 2 m/s 760 mmHg 65%
    12:00 -2°C° 0 mm 2 m/s 761 mmHg 62%
    13:00 -1°C° 0 mm 2 m/s 761 mmHg 59%
    14:00 -2°C° 0 mm 2 m/s 760 mmHg 63%
    15:00 -2°C° 0 mm 2 m/s 760 mmHg 67%
    16:00 -3°C° 0 mm 2 m/s 760 mmHg 71%
    17:00 -3°C° 0 mm 2 m/s 760 mmHg 72%
    18:00 -4°C° 0 mm 2 m/s 760 mmHg 74%
    19:00 -5°C° 0 mm 3 m/s 760 mmHg 75%
    20:00 -5°C° 0 mm 3 m/s 759 mmHg 73%
    21:00 -5°C° 0 mm 3 m/s 759 mmHg 71%
    22:00 -5°C° 0 mm 3 m/s 759 mmHg 70%
    23:00 -5°C° 0 mm 3 m/s 759 mmHg 69%
    Mostrar mais